Location: Gadern
(49.5873°N, 8.8138°E)
Time: 07:05:38
(UTC+00:00)

Cosmos 2221 - Pass Details

Date: 19 May 2025
Orbit: 572 x 592 km, 82.5° (Epoch: 22 June)

Event Time Altitude Azimuth Distance (km) Brightness Sun altitude
Exits shadow 20:01:29 - 116° (ESE) 2,005 4.6 -7.6°
Reaches altitude 10° 20:02:02 10° 110° (ESE) 1,894 4.5 -7.7°
Maximum altitude 20:03:55 13° 83° (E) 1,713 4.5 -7.9°
Drops below altitude 10° 20:05:48 10° 56° (NE) 1,897 4.9 -8.1°
Sets 20:09:04 0° 28° (NNE) 2,799 6.2 -8.5°
